Location: Areias
(19.7500°S, 44.0000°W)
Time: 14:45:40
(UTC+00:00)

Daily predictions for brighter satellites

Satellite Brightness Start Highest point End
(mag) Time Altitude Azimuth Time Altitude Azimuth Time Altitude Azimuth
Cosmos 2034 Rocket 4.4 21:38:00 10° SSE 21:43:59 44° E 21:49:51 10° NNE
Cosmos 1812 3.2 21:41:03 10° NNE 21:44:39 38° E 21:48:17 10° SSE
CSL-04 Rocket 4.3 21:45:31 10° SE 21:50:37 36° E 21:55:40 10° NNE
COSMOS 2455 3.6 21:45:27 10° S 21:50:47 32° ESE 21:56:04 10° NE
ATLAS 5 CENTAUR R/B 3.8 21:44:43 10° NW 21:51:40 52° WSW 21:58:29 10° SSE
NOSS 3-4 (A) 4.0 21:53:41 10° S 21:59:51 41° ESE 22:05:32 10° NE
NOSS 3-4 (C) 4.0 21:53:45 10° S 21:59:55 41° ESE 22:05:36 10° NE
Meteor 1-10 Rocket 4.5 21:56:37 10° N 22:02:09 75° W 22:07:49 10° S
ATLAS 3B CENTAUR R/B 2.4 22:04:06 10° WNW 22:05:13 13° NNW 22:06:14 10° N
Cosmos 540 Rocket 3.5 22:00:29 10° SSW 22:05:38 89° WNW 22:10:44 10° NNE
STARLINK-1176 4.5 22:04:21 10° S 22:06:20 17° SE 22:07:30 14° E
SWIFT 4.2 22:03:57 10° WNW 22:07:09 21° NNW 22:10:19 10° NNE
CSL-04 Debris 4.2 22:02:32 10° SSE 22:07:53 57° ENE 22:13:11 10° N
Okean-O 4.3 22:04:25 10° S 22:08:36 39° WSW 22:12:43 10° NW
ATLAS 5 CENTAUR R/B 2.5 22:05:39 10° W 22:09:08 43° N 22:18:24 13° ENE
H-2A R/B 2.9 22:05:03 10° SW 22:09:33 20° S 22:11:38 10° SE
Cosmos 1441 Rocket 4.1 22:06:37 10° SSE 22:09:51 27° E 22:12:40 12° NE
GPS 2-17 Rocket1 3.6 22:06:44 10° NW 22:10:46 37° NNE 22:13:42 17° ENE
Cosmos 1939 Rocket 2.8 22:07:05 10° SSE 22:11:08 72° E 22:15:11 10° N
Cosmos 2082 Rocket 3.3 22:05:49 10° NW 22:11:17 49° WSW 22:16:51 10° S
NOAA 11 4.1 22:06:39 10° SSE 22:12:12 79° ENE 22:17:39 10° N
Tsikada Rocket 4.4 22:07:34 10° N 22:13:57 71° W 22:20:21 10° S
CZ-4 R/B 2.1 22:10:17 10° S 22:14:25 60° WSW 22:18:34 10° NNW
CZ-2C R/B 3.2 22:12:11 10° NE 22:16:56 35° ESE 22:21:39 10° S
CZ-3B R/B 2.9 22:19:02 10° SSE 22:19:28 11° SE 22:19:28 11° SE
STARLINK-1165 4.4 22:22:35 10° S 22:25:28 24° SE 22:26:12 23° ESE
ATLAS V CENTAUR R/B 4.0 22:14:43 10° WNW 22:26:26 42° N 22:28:15 24° ENE
CZ-2C R/B 4.5 22:23:52 10° SE 22:27:25 20° E 22:27:25 20° E
STARLINK-1169 4.3 22:25:09 10° S 22:28:07 26° SE 22:28:45 25° ESE
STARLINK-1178 4.2 22:27:43 10° SSW 22:30:46 29° SE 22:31:18 27° ESE
ATLAS 2AS CENTAUR R/B 2.9 22:24:11 10° SSW 22:31:14 86° WNW 22:38:52 10° NNE
STARLINK-1120 4.0 22:30:14 10° SSW 22:33:21 31° SE 22:33:46 30° ESE
SAR-Lupe-2 3.5 22:31:38 22° NNE 22:33:48 59° ESE 22:37:21 10° S
HJ-1C 3.2 22:31:25 10° SSE 22:34:48 66° E 22:38:05 10° N
STARLINK-1131 3.9 22:32:51 10° SSW 22:36:02 33° SE 22:36:21 33° ESE
STARLINK-1190 3.8 22:35:32 10° SSW 22:38:45 37° SE 22:38:58 36° ESE
Atlas Centaur 2 3.1 22:36:39 10° SW 22:39:19 19° SSE 22:40:46 16° SE
Cosmos 1697 Rocket 2.8 22:36:05 10° S 22:41:36 52° ESE 22:44:16 29° NE
Meteor 1-11 Rocket 3.7 22:35:57 10° S 22:41:51 67° E 22:47:08 12° NNE
OAO 3 Copernicus 4.4 22:37:04 10° WNW 22:42:07 76° SSW 22:45:44 19° SE
Cosmos 2242 Rocket 3.5 22:40:17 10° N 22:44:51 84° E 22:49:29 10° S
Cosmos 1980 Rocket 3.0 22:44:49 10° S 22:49:45 30° ESE 22:50:00 29° ESE
Cosmos 1607 4.1 22:43:40 10° N 22:49:51 53° ENE 22:56:04 10° SE
Cosmos 1733 Rocket 3.0 22:45:27 10° S 22:49:57 82° E 22:52:35 24° N
STARLINK-1170 3.7 22:49:00 10° SW 22:50:46 39° SW 22:50:46 39° SW
Cosmos 1656 4.1 22:46:24 10° SSW 22:51:44 57° WNW 22:57:02 10° N
Intercosmos 24 3.8 22:50:37 10° S 22:54:36 75° W 22:56:00 35° N
IRS-1A Rocket 4.2 22:52:16 10° SSE 22:57:58 65° ENE 23:03:30 10° N
CZ-3A R/B 3.8 22:55:37 10° WSW 23:00:07 80° SSE 23:10:15 29° E
MOS 1 Rocket 3.3 23:01:17 33° N 23:03:31 87° WNW 23:08:40 10° SSW
Cosmos 1703 Rocket 3.5 23:03:39 38° N 23:05:22 87° E 23:09:54 10° S
Okean 1-7 3.1 23:05:54 64° SE 23:05:54 64° SE 23:09:51 10° S
STARLINK-1129 4.1 23:05:05 10° SW 23:07:38 47° SW 23:07:38 47° SW
FUSE 4.1 23:04:54 10° W 23:10:09 58° NNW 23:10:47 54° N
STARLINK-1134 4.3 23:08:31 10° SW 23:10:59 42° SW 23:10:59 42° SW
GPS 2-14 Rocket1 3.7 23:11:46 10° W 23:14:31 40° WNW 23:14:31 40° WNW
Cosmos 2344 4.1 23:05:32 10° SSW 23:17:05 84° WNW 23:21:52 32° NNE
Ariane Rocket 3.6 23:17:56 10° S 23:22:55 55° WSW 23:27:52 10° NNW
Delta 202 4.2 23:20:32 10° W 23:26:09 56° N 23:26:39 54° N
Cosmos 1536 4.0 23:23:38 10° SSW 23:27:06 41° WSW 23:27:06 41° WSW
ARGOS 3.2 23:23:35 10° SSE 23:28:15 67° SSE 23:28:15 67° SSE
Cosmos 2278 3.7 23:24:15 10° SSW 23:29:59 76° WNW 23:30:24 72° NW
H-2A R/B 2.5 23:32:22 10° S 23:37:23 58° WSW 23:38:18 50° WNW
Nadezhda 4 Rocket 4.2 23:47:39 62° WNW 23:48:22 67° W 23:54:40 10° S
